Station: Lady Elliot Island  

  Atmospheric Gas Attenuation - ITU Rec 676-11   ----------------- dB/100km -----------------
Date Time Temp RH % AH g/m3 Dew Point Wind Direction Speed kph Gust kph Barometer mB Rainfall Since 9am 24GHz 47GHz 76GHz 122GHz 134GHz 241GHz
06/09 05:10 21.3 78 14.54 17.3 24 30 1018.8 0 31.8 33.7 60.4 159.4 168.4 584.0
06/09 05:00 21.4 80 15 17.8 22 28 1018.7 0 32.8 34.5 62.4 164.7 174.9 606.5
06/09 04:50 21.2 80 14.82 17.6 30 35 1018.5 0 32.4 34.2 61.7 162.9 172.7 598.8
06/09 04:40 21.2 80 14.82 17.6 30 37 1018.1 0 32.4 34.2 61.7 162.9 172.6 598.6
06/09 04:30 21.3 80 14.91 17.7 28 33 1018.2 0 32.6 34.3 62.0 163.7 173.7 602.5
06/09 04:20 21.2 80 14.82 17.6 26 32 1018.3 0 32.4 34.2 61.7 162.9 172.7 598.7
06/09 04:10 21.3 80 14.91 17.7 24 32 1018.3 0 32.6 34.3 62.0 163.7 173.7 602.5
06/09 04:00 21.5 79 14.9 17.7 24 32 1018.3 0 32.5 34.2 61.8 163.2 173.1 600.4
06/09 03:50 21.4 79 14.81 17.6 24 30 1018.3 0 32.3 34.1 61.5 162.3 172.0 596.7
06/09 03:40 21.3 80 14.91 17.7 26 32 1018.3 0 32.6 34.3 62.0 163.7 173.7 602.5
06/09 03:30 21.4 80 15 17.8 24 32 1018.3 0 32.8 34.4 62.4 164.6 174.8 606.3
06/09 03:20 21.4 79 14.81 17.6 22 32 1018.4 0 32.3 34.1 61.5 162.4 172.1 596.7
06/09 03:10 21.4 80 15 17.8 22 30 1018.3 0 32.8 34.4 62.4 164.6 174.8 606.3
06/09 03:00 21.4 80 15 17.8 20 30 1018.3 0 32.8 34.4 62.4 164.6 174.8 606.3
06/09 02:50 21.2 81 15.01 17.8 24 32 1018.4 0 32.8 34.5 62.6 165.2 175.4 608.5
06/09 02:40 21.2 82 15.2 18 26 30 1018.5 0 33.2 34.9 63.4 167.5 178.3 618.3
06/09 02:30 21.3 84 15.66 18.5 26 30 1018.5 0 34.2 35.7 65.4 172.8 184.9 641.3
06/09 02:20 21.2 82 15.2 18 24 30 1018.7 0 33.2 34.9 63.4 167.5 178.3 618.4
06/09 02:10 21 83 15.2 18 24 28 1018.9 0 33.2 35.0 63.6 168.0 178.8 620.1
06/09 02:00 21.1 83 15.29 18.1 24 30 1018.9 0 33.4 35.1 63.9 168.8 179.9 623.9
06/09 01:50 21.2 83 15.38 18.2 24 28 1018.9 0 33.6 35.2 64.3 169.7 181.0 627.7
06/09 01:40 21.1 84 15.48 18.3 24 28 1018.9 0 33.8 35.5 64.8 171.1 182.7 633.7
06/09 01:30 21.1 84 15.48 18.3 24 28 1019 0 33.8 35.5 64.8 171.1 182.7 633.8
06/09 01:20 21.1 85 15.66 18.5 22 26 1019.1 0 34.2 35.8 65.6 173.3 185.4 643.2
06/09 01:10 21 85 15.57 18.4 22 28 1019.1 0 34.0 35.7 65.3 172.5 184.3 639.4
06/09 00:50 21.1 84 15.48 18.3 22 30 1019.2 0 33.8 35.5 64.8 171.2 182.7 633.9
06/09 00:40 21.1 84 15.48 18.3 24 30 1019.3 0 33.8 35.5 64.8 171.2 182.8 633.9
06/09 00:30 21.2 86 15.94 18.8 22 28 1019.5 0 34.8 36.3 66.9 176.6 189.4 657.2
06/09 00:20 21 84 15.39 18.2 26 32 1019.5 0 33.6 35.4 64.5 170.3 181.7 630.2
06/09 00:10 21.1 85 15.66 18.5 24 32 1013.1 0 34.2 35.5 65.3 172.5 184.6 640.5
06/09 00:00 21.3 84 15.66 18.5 24 32 1019.6 0 34.2 35.7 65.5 173.0 185.0 641.8
05/09 23:50 21.2 84 15.57 18.4 24 30 1019.7 0 34.0 35.6 65.2 172.1 183.9 638.0
05/09 23:40 21.1 86 15.84 18.7 26 28 1019.8 0 34.6 36.2 66.5 175.6 188.2 653.0
05/09 23:30 21.2 86 15.94 18.8 22 28 1019.9 0 34.8 36.3 66.9 176.7 189.5 657.4
05/09 23:20 21.1 86 15.84 18.7 22 28 1019.9 0 34.6 36.2 66.5 175.7 188.2 653.0
05/09 23:10 21.2 86 15.94 18.8 22 28 1019.9 0 34.8 36.3 66.9 176.7 189.5 657.4
05/09 23:00 21.2 85 15.75 18.6 22 28 1020 0 34.4 36.0 66.0 174.3 186.6 647.5
05/09 22:50 21.2 84 15.57 18.4 22 26 1019.9 0 34.0 35.6 65.2 172.1 183.9 638.1
05/09 22:40 21.2 86 15.94 18.8 22 26 1019.8 0 34.8 36.3 66.9 176.6 189.5 657.4
05/09 22:30 21.3 86 16.03 18.9 22 28 1019.8 0 35.0 36.4 67.2 177.5 190.6 661.2
05/09 22:19 21.2 85 15.75 18.6 22 26 1019.8 0 34.4 36.0 66.0 174.3 186.6 647.4
05/09 22:10 21.2 85 15.75 18.6 22 28 1019.9 0 34.4 36.0 66.0 174.3 186.6 647.4
05/09 22:00 21.2 84 15.57 18.4 20 26 1019.9 0 34.0 35.6 65.2 172.1 183.9 638.1
05/09 21:50 21.2 84 15.57 18.4 20 26 1019.9 0 34.0 35.6 65.2 172.1 183.9 638.1
05/09 21:40 21.3 85 15.84 18.7 22 24 1019.9 0 34.5 36.1 66.3 175.2 187.7 651.3
05/09 21:30 21.3 84 15.66 18.5 20 26 1019.9 0 34.2 35.7 65.5 173.0 185.0 641.9
05/09 21:20 21.1 85 15.66 18.5 20 26 1019.8 0 34.2 35.8 65.7 173.4 185.5 643.5
05/09 21:10 21.2 85 15.75 18.6 20 26 1019.8 0 34.4 36.0 66.0 174.3 186.6 647.4
05/09 21:00 21.3 84 15.66 18.5 20 26 1019.7 0 34.2 35.7 65.5 173.0 185.0 641.8
05/09 20:50 21.3 84 15.66 18.5 19 24 1019.7 0 34.2 35.7 65.5 173.0 185.0 641.8
05/09 20:40 21.3 83 15.47 18.3 20 24 1019.7 0 33.8 35.4 64.6 170.7 182.2 631.9
05/09 20:29 21.3 83 15.47 18.3 20 24 1019.7 0 33.8 35.4 64.6 170.7 182.2 631.9
05/09 20:20 21.4 84 15.75 18.6 20 26 1019.6 0 34.3 35.9 65.8 173.8 186.1 645.6
05/09 20:10 21.3 84 15.66 18.5 20 24 1019.6 0 34.2 35.7 65.5 173.0 185.0 641.8
05/09 20:00 21.2 82 15.2 18 20 24 1019.6 0 33.2 34.9 63.5 167.6 178.4 618.8
05/09 19:50 21.2 83 15.38 18.2 20 26 1019.6 0 33.6 35.3 64.3 169.8 181.1 628.1
05/09 19:40 21.3 84 15.66 18.5 20 24 1019.7 0 34.2 35.7 65.5 173.0 185.0 641.8
05/09 19:29 21.4 84 15.75 18.6 15 19 1019.6 0 34.3 35.9 65.8 173.8 186.1 645.6
05/09 19:20 21.3 84 15.66 18.5 19 24 1019.5 0 34.2 35.7 65.5 172.9 185.0 641.7
05/09 19:10 21.3 83 15.47 18.3 19 22 1019.4 0 33.8 35.4 64.6 170.6 182.1 631.8
05/09 19:00 21.3 82 15.28 18.1 19 22 1019.3 0 33.4 35.0 63.8 168.3 179.3 621.9
05/09 18:50 21.4 83 15.56 18.4 20 24 1019.2 0 33.9 35.5 64.9 171.5 183.2 635.5
05/09 18:40 21.5 83 15.65 18.5 20 24 1019.1 0 34.1 35.6 65.3 172.3 184.3 639.3
05/09 18:30 21.4 82 15.37 18.2 20 24 1019.1 0 33.5 35.1 64.1 169.2 180.4 625.7
05/09 18:20 21.5 82 15.46 18.3 19 24 1019.1 0 33.7 35.3 64.4 170.0 181.5 629.5
05/09 18:10 21.5 83 15.65 18.5 20 24 1019.1 0 34.1 35.6 65.3 172.3 184.3 639.3
05/09 18:00 21.6 81 15.36 18.2 19 22 1019.1 0 33.5 35.0 63.9 168.6 179.8 623.5
05/09 17:50 21.6 81 15.36 18.2 20 24 1019.1 0 33.5 35.0 63.9 168.6 179.8 623.5
05/09 17:40 21.6 80 15.17 18 20 26 1019 0 33.1 34.7 63.0 166.3 176.9 613.7
05/09 17:30 21.7 80 15.26 18.1 19 24 1019 0 33.3 34.8 63.3 167.2 178.0 617.5
05/09 17:20 22 80 15.53 18.4 20 24 1018.9 0 33.8 35.2 64.3 169.7 181.3 628.9
05/09 17:10 22.2 79 15.51 18.4 22 28 1018.8 0 33.8 35.1 64.0 169.0 180.5 626.2
05/09 17:00 22.4 79 15.69 18.6 22 28 1018.8 0 34.1 35.3 64.7 170.7 182.7 633.8
05/09 16:50 22.5 77 15.38 18.3 22 28 1018.7 0 33.5 34.7 63.2 166.8 177.9 617.1
05/09 16:40 22.6 76 15.27 18.2 24 28 1018.6 0 33.2 34.5 62.6 165.3 176.0 610.6
05/09 16:30 22.8 76 15.44 18.3 22 26 1018.5 0 33.6 34.7 63.2 166.8 178.0 617.6
05/09 16:20 22.9 75 15.33 18.2 24 30 1018.5 0 33.3 34.4 62.6 165.3 176.2 611.2
05/09 16:10 23.2 75 15.59 18.5 22 28 1018.4 0 33.9 34.8 63.5 167.7 179.2 621.9
05/09 16:00 23.3 75 15.68 18.6 22 28 1018.4 0 34.0 34.9 63.8 168.6 180.3 625.7
05/09 15:50 23.3 75 15.68 18.6 22 28 1018.4 0 34.0 34.9 63.8 168.6 180.3 625.7
05/09 15:40 23.6 75 15.95 18.9 20 26 1018.3 0 34.6 35.2 64.8 171.1 183.5 636.8
05/09 15:30 23.8 74 15.92 18.9 20 28 1018.4 0 34.5 35.1 64.5 170.3 182.6 633.7
05/09 15:20 23.5 72 15.23 18.2 20 24 1018.4 0 33.1 34.0 61.7 162.9 173.3 601.5
05/09 15:10 24.1 73 15.97 19 19 24 1018.4 0 34.6 35.1 64.5 170.2 182.6 633.8
05/09 14:59 24.4 72 16.02 19 19 24 1018.4 0 34.7 35.0 64.4 170.2 182.6 633.8
05/09 14:50 24.3 71 15.71 18.7 20 26 1018.5 0 34.0 34.5 63.1 166.8 178.4 619.1
05/09 14:40 24.4 70 15.58 18.6 20 24 1018.7 0 33.7 34.3 62.5 165.1 176.3 611.9
05/09 14:30 24.3 70 15.49 18.5 19 24 1018.8 0 33.6 34.2 62.2 164.2 175.3 608.3
05/09 14:20 24 70 15.23 18.2 20 26 1018.9 0 33.0 33.8 61.3 161.9 172.3 597.8
05/09 14:10 25 71 16.34 19.4 19 24 1019 0 35.3 35.4 65.4 172.7 185.8 645.2
05/09 14:00 25 70 16.11 19.1 19 22 1019.1 0 34.8 35.0 64.4 170.0 182.5 633.7
05/09 13:50 24.8 71 16.16 19.2 19 22 1019.2 0 34.9 35.2 64.8 171.0 183.8 637.9
05/09 13:40 24.9 71 16.25 19.3 17 20 1019.4 0 35.1 35.3 65.1 171.9 184.8 641.7
05/09 13:30 24.7 69 15.62 18.6 17 20 1019.6 0 33.8 34.3 62.5 165.0 176.3 611.9
05/09 13:20 24.7 70 15.84 18.9 17 20 1019.7 0 34.3 34.7 63.5 167.6 179.5 622.9
05/09 13:10 24.8 67 15.25 18.3 17 20 1019.8 0 33.0 33.6 60.8 160.6 170.9 593.0
05/09 13:00 24.9 68 15.57 18.6 17 20 1020 0 33.7 34.1 62.1 164.1 175.2 608.1
05/09 12:50 24.8 66 15.02 18 17 20 1020.1 0 32.5 33.2 59.9 158.0 167.7 581.9
05/09 12:40 24.9 68 15.57 18.6 17 19 1020.3 0 33.7 34.1 62.2 164.1 175.2 608.2
05/09 12:29 25 69 15.88 18.9 15 17 1020.4 0 34.3 34.6 63.4 167.5 179.4 622.8

Last Refresh: 06-Sep-2026 04:51:01

Bureau of Meteorology